RH
100 100 100 99 100 100 100 100 93 98 97 88 82 76 73 72 70 72 72 72 72 76 81 90 91 94 90 90 90 85 82 88 93 90 88 89 96 100 96 98 100 99 95
99 100 100 99 99 99 98 98 98 100 100 91 86 81 79 76 74 74 76 73 72 73 75 79 79 86 90 90 90 88 84 86 97 89 82 99 100 95 100 96 99 96 97
97 99 100 100 99 100 99 99 97 98 100 97 95 88 84 81 82 79 79 77 74 78 72 77 79 77 77 76 77 80 84 83 98 89 83 90 93 97 100 100 98 96 90
93 98 99 100 100 100 97 98 96 95 99 100 100 97 90 87 86 84 84 82 80 79 78 75 73 74 72 71 71 72 73 77 84 87 84 81 86 95 99 100 100 96 93
85 92 98 100 100 100 100 100 99 97 100 100 100 100 99 97 92 88 86 86 84 83 83 80 77 73 71 71 69 69 69 69 75 87 92 86 85 96 97 96 99 99 97
80 86 94 98 99 100 100 100 100 100 100 98 100 100 100 99 99 94 89 87 86 85 84 82 79 75 71 69 68 70 72 77 80 83 86 91 94 100 99 100 95 95 94
80 84 90 96 99 99 99 100 100 99 100 99 99 100 99 100 100 93 89 89 88 85 82 76 69 66 66 64 65 67 68 72 77 84 87 89 90 94 92 98 95 81 83
82 83 87 93 98 97 97 98 99 100 98 99 100 100 99 100 99 95 92 88 86 76 67 59 54 51 48 40 32 20 17 15 15 16 18 22 26 27 26 26 28 22 26
84 85 88 91 96 96 94 94 95 98 100 99 100 100 100 100 100 98 92 85 69 60 48 38 33 28 18 12 10 10 10 10 10 9 9 9 9 9 9 9 9 10 12
86 86 87 89 92 92 92 95 99 100 100 99 99 100 100 100 100 95 85 68 55 42 28 21 16 12 11 10 10 9 8 7 5 5 4 4 3 3 3 3 4 4 5
84 84 85 86 87 87 91 96 100 98 98 99 98 98 99 99 94 84 64 44 44 24 16 12 10 9 8 7 5 4 4 4 4 4 4 4 4 4 4 5 5 5 6
82 82 82 83 82 86 93 98 98 98 98 97 96 97 97 89 82 67 46 42 23 15 10 8 7 5 4 4 4 4 4 4 5 5 6 6 7 7 8 8 8 9 9
81 80 79 79 79 82 91 97 97 96 96 96 96 96 90 71 52 37 18 14 11 9 7 5 4 4 4 4 5 6 7 8 8 9 10 10 11 12 12 13 15 17 18
79 77 76 75 76 80 86 96 96 96 96 96 96 94 68 29 17 14 12 9 7 6 5 5 5 6 7 8 9 10 10 11 12 13 14 15 16 16 18 19 22 24 26
78 76 73 73 75 77 87 96 96 96 96 91 63 29 20 15 13 10 8 6 6 6 7 7 8 10 11 12 13 14 15 16 17 18 19 20 21 22 23 25 29 30 32
88 74 70 71 72 72 92 95 91 74 57 36 24 27 18 12 9 7 7 7 8 9 10 11 12 13 14 15 17 16 20 24 26 26 27 29 29 29 30 30 32 36 50
90 85 71 68 70 70 91 94 88 82 70 46 19 13 10 8 7 8 9 10 11 12 13 13 14 16 18 22 37 29 29 24 20 21 20 20 21 23 23 29 44 59 66
82 81 77 74 65 60 75 90 77 42 20 16 13 10 9 9 10 11 12 13 14 17 19 20 23 29 29 25 38 46 22 21 25 26 25 24 27 29 53 91 95 80 68
84 83 66 63 64 47 39 29 24 20 17 12 10 10 10 11 13 14 18 30 24 40 27 30 23 16 14 13 53 44 30 34 34 39 39 40 43 83 99 99 87 77 83
95 94 89 95 93 46 31 24 20 17 13 12 12 14 15 18 43 79 92 72 35 31 20 14 12 10 11 19 94 92 66 69 71 62 47 63 100 100 100 100 99 90 96
95 96 96 94 75 36 28 21 16 14 16 16 22 62 93 95 82 39 36 32 20 14 12 12 14 18 20 25 100 100 89 100 84 61 69 83 98 100 100 99 57 80 96
97 97 95 95 44 29 24 18 19 35 74 94 95 95 95 85 62 35 22 16 14 14 17 23 29 32 34 45 96 100 100 100 88 75 83 76 100 80 72 44 83 96 81
96 97 93 89 75 58 47 86 96 96 95 96 95 95 94 46 24 19 16 16 20 27 33 40 41 40 55 74 80 72 100 84 100 91 94 85 80 39 21 21 28 30 33
97 97 97 97 96 97 96 96 96 96 96 96 92 54 27 19 18 18 21 24 36 48 54 58 51 48 58 77 91 89 75 96 80 89 90 49 17 16 16 15 15 16 18
97 97 96 97 96 96 97 96 96 96 92 52 29 22 21 20 21 25 28 42 62 67 69 78 73 64 70 89 100 100 100 100 100 61 18 14 13 14 23 38 50 48 36
97 97 96 96 97 96 96 96 88 53 28 20 23 25 23 23 23 26 33 84 95 100 100 100 100 95 100 100 100 100 97 100 71 18 14 18 42 61 64 66 69 77 80
Wind_Speed
27 26 25 25 26 25 27 28 31 26 26 26 25 23 21 20 13 10 8 4 4 4 4 5 7 10 11 11 11 10 9 10 13 12 10 8 7 8 9 9 8 7 5
30 30 29 27 26 26 25 24 28 26 26 26 24 23 21 18 18 14 12 9 7 7 7 4 4 6 8 10 11 10 10 12 17 14 14 12 9 9 10 9 7 5 4
39 36 34 31 29 28 28 28 25 22 25 26 24 24 20 17 17 16 15 13 12 11 8 8 6 6 6 5 6 8 9 13 20 18 12 7 7 12 8 10 9 7 6
40 39 37 35 32 32 31 30 30 27 24 26 24 22 20 18 16 16 15 14 14 14 14 12 11 10 9 6 4 4 6 10 16 21 20 15 10 10 9 9 9 8 6
43 43 40 36 33 31 30 28 27 27 26 26 23 21 19 17 16 16 15 13 14 14 14 14 13 12 10 9 8 7 8 11 15 19 23 19 16 16 10 13 12 11 8
45 42 38 36 33 31 30 29 28 27 24 22 22 20 18 18 18 17 14 14 14 14 13 13 12 11 10 7 6 5 12 10 12 15 18 17 14 15 10 10 16 11 8
46 45 43 42 37 33 32 30 28 26 24 22 20 20 19 20 19 16 16 15 15 13 14 12 10 9 8 5 4 6 7 7 7 7 8 10 11 11 10 9 14 11 12
44 45 45 43 38 33 30 27 25 24 22 21 21 21 20 21 19 18 17 16 15 15 14 12 10 8 6 5 5 6 6 6 5 5 6 5 5 5 5 6 8 8 10
39 43 44 42 38 33 30 27 25 24 23 22 22 23 22 21 20 19 18 17 16 15 13 12 10 8 8 8 7 6 6 5 4 3 3 2 2 2 3 3 4 6 6
36 40 41 39 37 33 29 28 27 25 24 23 23 23 22 21 20 19 18 17 16 15 13 11 10 9 8 7 6 5 5 3 2 2 1 1 2 3 4 4 4 5 6
36 38 38 38 36 32 30 29 28 27 27 26 24 22 21 21 19 19 18 17 16 14 13 11 10 8 7 6 5 4 3 2 2 1 0 1 2 3 4 6 7 7 7
35 37 38 38 36 33 30 30 30 28 26 25 24 23 22 22 21 20 19 17 16 15 13 11 9 8 7 5 4 3 3 2 1 0 1 2 3 4 6 7 9 10 10
35 38 39 38 36 34 32 30 29 27 26 25 24 23 23 22 21 20 20 18 16 14 13 11 9 7 6 5 4 3 2 1 1 2 3 4 5 6 7 9 10 11 13
38 40 41 39 37 34 33 31 29 27 26 25 24 24 24 23 22 21 19 17 16 14 12 10 9 7 6 4 3 1 0 2 3 5 6 7 9 10 11 13 14 15 16
40 44 44 40 36 35 33 30 29 27 26 26 26 26 25 23 21 20 19 17 15 13 12 10 8 6 5 3 2 2 3 5 7 8 10 11 12 13 13 14 16 19 19
30 43 43 41 38 36 34 32 31 30 28 27 26 25 25 24 21 19 17 16 14 12 9 8 6 4 2 2 4 7 7 9 10 11 11 12 13 14 14 15 16 17 17
33 37 42 41 38 37 35 34 34 32 30 29 27 25 23 22 20 19 16 14 12 10 7 5 3 3 3 4 4 10 9 11 12 12 13 13 14 15 15 14 13 14 15
40 41 40 38 37 37 36 35 33 32 30 28 26 25 24 22 20 18 15 12 9 6 4 3 4 4 4 5 3 9 9 10 11 12 13 14 14 15 14 18 20 21 21
38 40 41 39 36 36 36 36 35 32 30 28 26 25 22 20 18 15 12 8 6 5 5 4 4 4 5 4 2 8 10 10 10 10 13 15 14 15 14 17 20 19 22
37 40 38 37 36 36 35 36 35 32 30 28 26 24 21 18 15 13 10 8 7 5 4 3 3 4 3 1 5 8 11 10 12 15 14 12 12 12 14 16 15 18 24
36 39 37 37 35 35 35 35 34 32 30 29 27 23 19 16 12 11 10 7 6 4 2 1 0 2 2 3 9 7 11 11 14 12 10 11 14 11 12 16 20 17 22
38 40 40 38 36 34 33 35 34 32 29 27 24 21 17 15 13 10 8 6 5 4 4 3 3 4 5 8 9 6 7 8 11 11 11 11 14 17 21 24 21 19 22
39 40 43 41 37 34 31 33 32 30 28 25 21 18 15 13 11 9 8 8 8 7 5 4 5 6 8 9 10 12 10 10 10 12 11 15 21 23 21 20 20 21 21
41 42 42 40 37 33 31 30 29 26 24 21 18 17 14 13 11 11 10 10 9 7 5 5 6 8 9 9 11 12 11 9 13 14 17 18 15 15 17 18 20 21 21
39 40 41 39 35 32 30 28 26 24 21 20 19 17 15 14 13 13 13 13 8 4 4 6 6 7 8 8 10 8 9 10 12 14 9 10 13 16 18 20 22 23 24
41 40 38 36 34 32 29 25 22 21 20 20 18 16 15 14 13 12 14 11 8 7 4 3 4 5 3 3 2 4 9 7 8 7 8 11 14 17 21 24 27 27 27
Wind_Direction
219 219 215 210 204 206 201 203 192 193 190 188 185 190 186 179 186 192 199 226 257 218 175 186 202 208 210 209 202 199 202 182 172 155 144 145 145 141 151 157 162 170 168
222 220 216 211 206 202 206 210 196 189 189 190 191 193 190 188 182 187 189 197 217 214 227 205 202 213 218 213 213 209 200 191 181 183 166 143 139 148 145 155 153 169 175
221 219 216 213 209 203 201 196 215 206 191 191 192 197 196 195 189 187 191 193 212 202 210 222 206 197 208 217 210 213 214 210 193 198 191 185 190 157 145 154 174 185 214
225 224 217 213 208 206 203 199 197 205 209 195 194 199 203 200 197 195 193 194 204 201 198 193 213 223 227 242 245 219 217 219 208 208 213 215 207 188 172 168 179 199 206
225 222 218 214 207 205 204 207 202 205 203 194 198 201 199 202 202 199 193 192 200 199 199 194 194 202 216 220 226 254 266 250 228 218 217 223 229 208 192 189 191 203 213
222 222 219 218 213 208 205 204 204 204 204 199 195 199 203 208 202 197 195 193 196 193 196 194 191 192 196 199 221 257 281 235 221 220 222 225 220 210 202 195 197 211 218
215 213 210 210 209 205 203 202 203 204 206 202 202 201 201 201 200 201 198 192 191 189 189 188 186 185 195 197 235 247 210 187 183 176 186 202 212 213 218 208 197 209 224
210 209 209 209 206 205 205 204 202 202 203 203 201 198 197 195 195 196 193 188 184 183 181 178 180 182 184 183 184 178 174 163 165 158 159 163 172 180 198 204 202 211 229
200 203 204 205 201 200 200 201 200 200 199 196 194 191 187 187 190 190 188 183 179 179 176 174 176 177 172 163 170 171 168 160 166 167 178 193 206 225 236 232 228 227 227
189 196 199 197 197 199 197 195 194 195 191 188 185 184 182 182 183 181 179 175 175 173 171 172 175 171 162 168 169 172 168 176 188 179 199 230 261 278 286 288 283 270 255
185 189 191 192 194 193 193 193 191 189 185 182 180 178 176 177 175 174 173 169 169 169 170 174 168 165 167 168 171 167 154 159 150 126 340 322 328 318 316 314 309 302 297
181 184 185 184 185 188 188 188 186 185 181 177 174 172 171 170 168 168 166 168 167 168 172 169 163 167 165 164 159 151 150 144 134 135 323 315 319 320 317 313 312 312 308
180 180 180 181 183 185 185 186 183 179 175 172 168 164 165 164 163 165 164 164 166 167 168 163 162 162 161 160 156 147 149 146 325 317 315 320 318 314 312 311 311 311 309
179 179 179 180 182 182 182 182 177 175 171 167 164 163 163 162 162 164 164 165 164 166 165 161 160 159 158 156 153 160 278 306 305 309 315 314 312 310 310 308 309 307 307
177 181 179 178 178 178 178 177 174 168 162 161 163 164 162 161 163 164 162 162 162 163 162 161 161 163 164 172 194 249 281 293 303 306 306 307 308 307 305 306 306 310 313
177 182 179 178 176 176 175 172 167 164 164 163 163 163 164 163 162 160 159 160 160 161 161 162 163 168 191 242 295 286 293 299 301 302 306 307 307 304 304 305 309 315 319
178 182 181 177 175 175 176 171 167 166 164 166 165 163 160 159 157 157 158 159 162 164 167 174 189 219 251 264 283 291 303 306 309 311 311 312 312 311 313 318 323 318 315
186 187 182 178 173 171 169 167 165 164 163 162 161 159 158 157 156 157 159 161 163 170 193 226 246 268 283 288 324 293 310 313 318 324 325 324 324 327 336 339 328 323 324
183 183 180 176 171 169 165 164 161 160 159 158 157 156 156 156 156 157 157 165 180 210 225 244 266 275 281 287 13 311 325 334 341 342 346 353 355 13 351 330 331 329 331
181 176 174 173 168 167 165 161 158 157 156 155 154 154 153 153 160 173 184 192 199 215 230 252 277 289 301 332 51 352 359 13 6 0 10 32 8 359 345 330 336 349 333
176 173 171 167 164 163 161 157 154 154 155 155 155 159 163 165 163 171 180 189 195 199 206 211 354 359 27 60 62 38 17 17 4 14 21 20 19 6 349 330 323 328 317
164 167 162 161 160 162 161 159 156 157 161 162 161 156 156 163 176 182 179 173 169 155 140 117 89 71 77 80 82 50 43 5 358 3 358 352 345 334 324 325 328 321 309
161 162 158 158 160 162 164 160 162 163 161 158 156 158 162 171 173 172 166 154 148 142 133 118 102 106 115 87 55 41 39 36 349 335 331 335 330 333 339 342 337 332 328
160 161 157 154 156 163 167 166 160 157 154 154 156 163 169 169 166 161 153 149 143 131 116 93 87 111 124 92 50 23 24 12 358 345 338 337 351 6 10 10 7 1 353
156 158 157 156 155 160 160 157 153 153 154 162 164 164 165 162 159 153 148 151 143 111 86 62 59 84 111 62 20 6 2 13 353 331 4 21 18 12 6 360 354 350 345
156 157 157 155 153 154 153 151 153 162 165 163 159 158 159 158 158 155 153 149 145 146 142 106 10 349 64 22 6 17 308 302 331 0 15 8 3 1 356 350 346 343 339